This is the latest recevied weather packets stored in our database for station/object TG5ALY-16. If no packets are shown the sender has not sent any weather packets the latest 10 day(s).
| Time | Temp. | Humidity | Pressure | Rain* | Wind** | Luminosity | Snow |
|---|---|---|---|---|---|---|---|
| 1778088564 | 23.33° C | 24% | 1015 hPa | 0 mm | - | - | - |
| 1778087963 | 23.33° C | 24% | 1015 hPa | 0 mm | - | - | - |
| 1778087363 | 23.33° C | 24% | 1015 hPa | 0 mm | - | - | - |
| 1778086762 | 19.44° C | 68% | 1015 hPa | 0 mm | - | - | - |
| 1778086161 | 19.44° C | 68% | 1015 hPa | 0 mm | - | - | - |
| 1778085560 | 20° C | 67% | 1015 hPa | 0 mm | - | - | - |
| 1778084960 | 20° C | 67% | 1016 hPa | 0 mm | - | - | - |
| 1778084374 | 20° C | 66% | 1016 hPa | 0 mm | - | - | - |
| 1778083773 | 19.44° C | 65% | 1016 hPa | 0 mm | - | - | - |
| 1778083172 | 19.44° C | 65% | 1016 hPa | 0 mm | - | - | - |
| 1778082571 | 18.89° C | 66% | 1016 hPa | 0 mm | - | - | - |
| 1778081971 | 18.89° C | 66% | 1016 hPa | 0 mm | - | - | - |
| 1778081370 | 18.89° C | 66% | 1017 hPa | 0 mm | - | - | - |
| 1778080769 | 18.33° C | 70% | 1017 hPa | 0 mm | - | - | - |
| 1778080169 | 18.33° C | 70% | 1017 hPa | 0 mm | - | - | - |
| 1778079568 | 12.22° C | 94% | 1017 hPa | 0 mm | - | - | - |
| 1778078967 | 12.22° C | 94% | 1017 hPa | 0 mm | - | - | - |
| 1778078367 | 16.11° C | 79% | 1017 hPa | 0 mm | - | - | - |
| 1778077766 | 16.11° C | 79% | 1017 hPa | 0 mm | - | - | - |
| 1778077165 | 15.56° C | 80% | 1017 hPa | 0 mm | - | - | - |
| 1778076565 | 15.56° C | 80% | 1017 hPa | 0 mm | - | - | - |
| 1778075964 | 11.11° C | 94% | 1017 hPa | 0 mm | - | - | - |
| 1778075364 | 11.11° C | 94% | 1017 hPa | 0 mm | - | - | - |
| 1778074763 | 13.33° C | 85% | 1017 hPa | 0 mm | - | - | - |
| 1778074162 | 13.33° C | 85% | 1017 hPa | 0 mm | - | - | - |
* Rain latest hour (hover to see other rain measurements)
** Current wind speed in m/s (hover to see current wind gust speed)